Time,TemperatureF,DewpointF,PressureIn,WindDirection,WindDirectionDegrees,WindSpeedMPH,WindSpeedGustMPH,Humidity,HourlyPrecipIn,Conditions,Clouds,dailyrainin,SoftwareType,DateUTC
2012-09-04 07:09:00,42.7,37.3,29.99,WSW,248,0.0,0.0,81,0.00,,---,0.00,VWS V14.01,2012-09-04 13:09:00,
2012-09-04 07:14:00,43.3,37.9,30.01,WSW,248,0.0,0.0,81,0.00,,---,0.00,VWS V14.01,2012-09-04 13:14:00,
2012-09-04 07:19:00,43.5,38.4,30.02,WSW,248,0.0,0.0,82,0.00,,---,0.00,VWS V14.01,2012-09-04 13:19:00,
2012-09-04 07:24:00,43.7,38.3,30.01,WSW,248,0.0,0.0,81,0.00,,---,0.00,VWS V14.01,2012-09-04 13:24:00,
2012-09-04 07:29:00,43.9,38.5,30.01,WSW,248,0.0,0.0,81,0.00,,---,0.00,VWS V14.01,2012-09-04 13:29:00,
2012-09-04 07:33:00,44.1,38.7,30.01,WSW,248,0.0,0.0,81,0.00,,---,0.00,VWS V14.01,2012-09-04 13:33:00,
2012-09-04 07:38:00,44.5,39.0,30.01,WSW,248,0.0,0.0,81,0.00,,---,0.00,VWS V14.01,2012-09-04 13:38:00,
2012-09-04 07:43:00,44.8,39.3,30.00,WSW,248,0.0,0.0,81,0.00,,---,0.00,VWS V14.01,2012-09-04 13:43:00,
2012-09-04 07:48:00,45.0,39.5,29.99,WSW,248,0.0,0.0,81,0.00,,---,0.00,VWS V14.01,2012-09-04 13:48:00,
2012-09-04 07:53:00,45.8,40.3,30.00,WSW,248,0.0,0.0,81,0.00,,---,0.00,VWS V14.01,2012-09-04 13:53:00,
2012-09-04 07:58:00,47.1,41.6,29.97,WSW,248,0.0,0.0,81,0.00,,---,0.00,VWS V14.01,2012-09-04 13:58:00,
2012-09-04 08:03:00,48.5,42.3,29.98,WSW,248,0.0,0.0,79,0.00,,---,0.00,VWS V14.01,2012-09-04 14:03:00,
2012-09-04 08:08:00,49.8,42.5,29.99,WSW,248,0.0,0.0,76,0.00,,---,0.00,VWS V14.01,2012-09-04 14:08:00,
2012-09-04 08:13:00,51.0,43.4,29.99,WSW,248,0.0,0.0,75,0.00,,---,0.00,VWS V14.01,2012-09-04 14:13:00,
2012-09-04 08:18:00,52.2,43.8,29.97,WSW,248,0.0,0.0,73,0.00,,---,0.00,VWS V14.01,2012-09-04 14:18:00,
2012-09-04 08:23:00,53.3,43.8,29.97,WSW,248,0.0,0.0,70,0.00,,---,0.00,VWS V14.01,2012-09-04 14:23:00,
2012-09-04 08:30:00,55.0,44.3,29.95,WSW,248,0.0,4.0,67,0.00,,---,0.00,VWS V14.01,2012-09-04 14:30:00,
2012-09-04 08:35:00,56.2,44.6,29.93,WSW,248,0.0,2.0,65,0.00,,---,0.00,VWS V14.01,2012-09-04 14:35:00,
2012-09-04 08:41:00,57.2,44.7,29.93,WSW,248,0.0,2.0,63,0.00,,---,0.00,VWS V14.01,2012-09-04 14:41:00,
2012-09-04 08:45:00,58.3,45.3,29.91,WSW,248,0.0,1.0,62,0.00,,---,0.00,VWS V14.01,2012-09-04 14:45:00,
2012-09-04 08:50:00,59.0,45.2,29.91,WSW,248,0.0,1.0,60,0.00,,---,0.00,VWS V14.01,2012-09-04 14:50:00,
2012-09-04 08:55:00,60.2,45.8,29.90,WSW,248,0.0,0.0,59,0.00,,---,0.00,VWS V14.01,2012-09-04 14:55:00,
2012-09-04 09:01:00,61.0,46.6,29.90,WSW,248,0.0,1.0,59,0.00,,---,0.00,VWS V14.01,2012-09-04 15:01:00,
2012-09-04 09:06:00,61.6,46.7,29.92,WSW,248,0.0,1.0,58,0.00,,---,0.00,VWS V14.01,2012-09-04 15:06:00,
2012-09-04 09:11:00,61.9,46.5,29.91,WSW,248,0.0,2.0,57,0.00,,---,0.00,VWS V14.01,2012-09-04 15:11:00,
2012-09-04 09:16:00,62.2,46.3,29.91,WSW,248,0.0,1.0,56,0.00,,---,0.00,VWS V14.01,2012-09-04 15:16:00,
2012-09-04 09:21:00,62.3,46.0,29.91,WSW,248,0.0,3.0,55,0.00,,---,0.00,VWS V14.01,2012-09-04 15:21:00,
2012-09-04 09:26:00,62.5,45.2,29.89,WSW,248,0.0,4.0,53,0.00,,---,0.00,VWS V14.01,2012-09-04 15:26:00,
2012-09-04 09:31:00,63.2,45.8,29.89,WSW,248,0.0,0.0,53,0.00,,---,0.00,VWS V14.01,2012-09-04 15:31:00,
2012-09-04 09:36:00,64.3,44.8,29.89,WSW,248,0.0,1.0,49,0.00,,---,0.00,VWS V14.01,2012-09-04 15:36:00,
2012-09-04 09:42:00,65.0,44.8,29.87,WSW,248,0.0,0.0,48,0.00,,---,0.00,VWS V14.01,2012-09-04 15:42:00,
2012-09-04 09:46:00,65.9,45.1,29.87,WSW,248,0.0,0.0,47,0.00,,---,0.00,VWS V14.01,2012-09-04 15:46:00,
2012-09-04 09:52:00,66.5,45.7,29.85,WSW,248,1.0,2.0,47,0.00,,---,0.00,VWS V14.01,2012-09-04 15:52:00,
2012-09-04 10:01:00,67.2,44.6,29.86,WSW,248,1.0,2.0,44,0.00,,---,0.00,VWS V14.01,2012-09-04 16:01:00,
2012-09-04 10:06:00,68.4,43.2,29.90,WSW,248,0.0,0.0,40,0.00,,---,0.00,VWS V14.01,2012-09-04 16:06:00,
2012-09-04 10:11:00,70.1,41.9,29.88,WSW,248,1.0,2.0,36,0.00,,---,0.00,VWS V14.01,2012-09-04 16:11:00,
2012-09-04 10:16:00,70.2,41.3,29.88,WSW,248,0.0,1.0,35,0.00,,---,0.00,VWS V14.01,2012-09-04 16:16:00,
2012-09-04 10:21:00,70.7,39.4,29.86,WSW,248,2.0,5.0,32,0.00,,---,0.00,VWS V14.01,2012-09-04 16:21:00,
2012-09-04 10:26:00,70.5,39.2,29.87,WSW,248,0.0,4.0,32,0.00,,---,0.00,VWS V14.01,2012-09-04 16:26:00,
2012-09-04 10:31:00,71.9,38.0,29.86,WSW,248,0.0,1.0,29,0.00,,---,0.00,VWS V14.01,2012-09-04 16:31:00,
2012-09-04 10:36:00,71.7,36.9,29.86,WSW,248,0.0,6.0,28,0.00,,---,0.00,VWS V14.01,2012-09-04 16:36:00,
2012-09-04 10:41:00,72.3,35.5,29.86,WSW,248,1.0,4.0,26,0.00,,---,0.00,VWS V14.01,2012-09-04 16:41:00,
2012-09-04 10:46:00,72.6,35.8,29.84,SE,145,0.0,2.0,26,0.00,,---,0.00,VWS V14.01,2012-09-04 16:46:00,
2012-09-04 10:51:00,73.5,35.6,29.84,North,349,8.0,9.0,25,0.00,,---,0.00,VWS V14.01,2012-09-04 16:51:00,
2012-09-04 10:59:00,72.6,35.8,29.84,West,271,1.0,2.0,26,0.00,,---,0.00,VWS V14.01,2012-09-04 16:59:00,
2012-09-04 11:04:00,73.5,34.5,29.88,West,271,5.0,5.0,24,0.00,,---,0.00,VWS V14.01,2012-09-04 17:04:00,
2012-09-04 11:09:00,73.8,34.8,29.86,West,279,1.0,6.0,24,0.00,,---,0.00,VWS V14.01,2012-09-04 17:09:00,
2012-09-04 11:14:00,74.1,34.0,29.85,West,280,0.0,1.0,23,0.00,,---,0.00,VWS V14.01,2012-09-04 17:14:00,
2012-09-04 11:19:00,74.8,33.5,29.85,West,280,0.0,1.0,22,0.00,,---,0.00,VWS V14.01,2012-09-04 17:19:00,
2012-09-04 11:24:00,74.7,33.4,29.85,NW,317,0.0,10.0,22,0.00,,---,0.00,VWS V14.01,2012-09-04 17:24:00,
2012-09-04 11:29:00,74.3,33.0,29.85,NW,323,2.0,6.0,22,0.00,,---,0.00,VWS V14.01,2012-09-04 17:29:00,
2012-09-04 11:34:00,74.9,34.6,29.85,NW,323,0.0,3.0,23,0.00,,---,0.00,VWS V14.01,2012-09-04 17:34:00,
2012-09-04 11:39:00,75.6,34.1,29.84,NW,323,0.0,7.0,22,0.00,,---,0.00,VWS V14.01,2012-09-04 17:39:00,
2012-09-04 11:45:00,75.3,32.7,29.85,NW,312,8.0,10.0,21,0.00,,---,0.00,VWS V14.01,2012-09-04 17:45:00,
2012-09-04 11:50:00,74.4,33.1,29.85,WNW,303,5.0,5.0,22,0.00,,---,0.00,VWS V14.01,2012-09-04 17:50:00,
2012-09-04 11:55:00,74.4,33.1,29.84,WSW,256,5.0,5.0,22,0.00,,---,0.00,VWS V14.01,2012-09-04 17:55:00,
2012-09-04 12:00:00,74.6,33.3,29.84,NE,54,5.0,7.0,22,0.00,,---,0.00,VWS V14.01,2012-09-04 18:00:00,
2012-09-04 12:05:00,74.8,32.3,29.85,NE,55,0.0,10.0,21,0.00,,---,0.00,VWS V14.01,2012-09-04 18:05:00,
2012-09-04 12:10:00,75.2,32.6,29.84,WSW,252,5.0,7.0,21,0.00,,---,0.00,VWS V14.01,2012-09-04 18:10:00,
2012-09-04 12:15:00,75.4,32.8,29.83,WSW,255,0.0,1.0,21,0.00,,---,0.00,VWS V14.01,2012-09-04 18:15:00,
2012-09-04 12:20:00,76.4,33.6,29.83,West,275,7.0,11.0,21,0.00,,---,0.00,VWS V14.01,2012-09-04 18:20:00,
2012-09-04 12:25:00,76.4,32.4,29.83,East,79,7.0,10.0,20,0.00,,---,0.00,VWS V14.01,2012-09-04 18:25:00,
2012-09-04 12:30:00,76.7,33.9,29.81,West,261,2.0,10.0,21,0.00,,---,0.00,VWS V14.01,2012-09-04 18:30:00,
2012-09-04 12:35:00,77.1,34.2,29.81,West,279,12.0,13.0,21,0.00,,---,0.00,VWS V14.01,2012-09-04 18:35:00,
2012-09-04 12:40:00,76.8,34.0,29.81,WSW,246,10.0,10.0,21,0.00,,---,0.00,VWS V14.01,2012-09-04 18:40:00,
2012-09-04 12:45:00,77.3,33.1,29.81,West,265,6.0,13.0,20,0.00,,---,0.00,VWS V14.01,2012-09-04 18:45:00,
2012-09-04 12:50:00,77.1,33.0,29.81,WNW,288,5.0,14.0,20,0.00,,---,0.00,VWS V14.01,2012-09-04 18:50:00,
2012-09-04 12:55:00,76.7,33.9,29.80,WSW,257,6.0,16.0,21,0.00,,---,0.00,VWS V14.01,2012-09-04 18:55:00,
2012-09-04 13:00:00,76.9,34.0,29.80,WSW,248,20.0,22.0,21,0.00,,---,0.00,VWS V14.01,2012-09-04 19:00:00,
2012-09-04 13:05:00,76.4,33.6,29.83,West,269,9.0,15.0,21,0.00,,---,0.00,VWS V14.01,2012-09-04 19:05:00,
2012-09-04 13:10:00,76.2,32.2,29.83,West,270,4.0,13.0,20,0.00,,---,0.00,VWS V14.01,2012-09-04 19:10:00,
2012-09-04 13:15:00,76.9,34.0,29.83,NW,315,11.0,19.0,21,0.00,,---,0.00,VWS V14.01,2012-09-04 19:15:00,
2012-09-04 13:20:00,76.9,34.0,29.83,WSW,255,7.0,12.0,21,0.00,,---,0.00,VWS V14.01,2012-09-04 19:20:00,
2012-09-04 13:26:00,76.5,32.5,29.83,WNW,301,7.0,13.0,20,0.00,,---,0.00,VWS V14.01,2012-09-04 19:26:00,
2012-09-04 13:31:00,75.6,33.0,29.83,West,271,4.0,10.0,21,0.00,,---,0.00,VWS V14.01,2012-09-04 19:31:00,
2012-09-04 13:36:00,75.5,32.9,29.83,WSW,257,0.0,10.0,21,0.00,,---,0.00,VWS V14.01,2012-09-04 19:36:00,
2012-09-04 13:41:00,76.4,33.6,29.82,WSW,248,14.0,18.0,21,0.00,,---,0.00,VWS V14.01,2012-09-04 19:41:00,
2012-09-04 13:46:00,76.9,34.0,29.82,West,268,0.0,7.0,21,0.00,,---,0.00,VWS V14.01,2012-09-04 19:46:00,
2012-09-04 13:51:00,76.6,33.8,29.82,WNW,295,7.0,11.0,21,0.00,,---,0.00,VWS V14.01,2012-09-04 19:51:00,
2012-09-04 14:00:00,78.6,35.4,29.80,West,267,8.0,18.0,21,0.00,,---,0.00,VWS V14.01,2012-09-04 20:00:00,
2012-09-04 14:05:00,78.6,35.4,29.80,WNW,302,9.0,13.0,21,0.00,,---,0.00,VWS V14.01,2012-09-04 20:05:00,
2012-09-04 14:10:00,78.1,35.0,29.81,WNW,283,1.0,9.0,21,0.00,,---,0.00,VWS V14.01,2012-09-04 20:10:00,
2012-09-04 14:15:00,78.3,34.0,29.81,WSW,257,4.0,15.0,20,0.00,,---,0.00,VWS V14.01,2012-09-04 20:15:00,
2012-09-04 14:21:00,78.7,35.5,29.78,WSW,252,5.0,10.0,21,0.00,,---,0.00,VWS V14.01,2012-09-04 20:21:00,
2012-09-04 14:26:00,79.2,35.9,29.78,WNW,302,11.0,14.0,21,0.00,,---,0.00,VWS V14.01,2012-09-04 20:26:00,
2012-09-04 14:31:00,79.1,35.8,29.78,West,273,5.0,15.0,21,0.00,,---,0.00,VWS V14.01,2012-09-04 20:31:00,
2012-09-04 14:36:00,78.7,35.5,29.77,NW,325,9.0,18.0,21,0.00,,---,0.00,VWS V14.01,2012-09-04 20:36:00,
2012-09-04 14:41:00,79.7,35.1,29.77,East,93,1.0,10.0,20,0.00,,---,0.00,VWS V14.01,2012-09-04 20:41:00,
2012-09-04 14:46:00,80.6,35.9,29.75,WNW,298,9.0,13.0,20,0.00,,---,0.00,VWS V14.01,2012-09-04 20:46:00,
2012-09-04 14:51:00,80.5,35.8,29.77,NW,304,7.0,12.0,20,0.00,,---,0.00,VWS V14.01,2012-09-04 20:51:00,
2012-09-04 14:56:00,80.1,34.2,29.77,NW,307,6.0,14.0,19,0.00,,---,0.00,VWS V14.01,2012-09-04 20:56:00,
2012-09-04 15:01:00,80.0,35.4,29.77,NW,309,8.0,9.0,20,0.00,,---,0.00,VWS V14.01,2012-09-04 21:01:00,
2012-09-04 15:06:00,78.8,34.4,29.78,WNW,298,11.0,15.0,20,0.00,,---,0.00,VWS V14.01,2012-09-04 21:06:00,
2012-09-04 15:11:00,79.1,34.6,29.78,NNW,340,12.0,16.0,20,0.00,,---,0.00,VWS V14.01,2012-09-04 21:11:00,
2012-09-04 15:18:00,79.3,34.8,29.78,WNW,299,8.0,14.0,20,0.00,,---,0.00,VWS V14.01,2012-09-04 21:18:00,
2012-09-04 15:23:00,79.3,34.8,29.78,NW,306,8.0,13.0,20,0.00,,---,0.00,VWS V14.01,2012-09-04 21:23:00,
2012-09-04 15:28:00,78.7,34.3,29.77,WSW,247,11.0,11.0,20,0.00,,---,0.00,VWS V14.01,2012-09-04 21:28:00,
2012-09-04 15:33:00,78.9,33.2,29.77,WSW,252,4.0,20.0,19,0.00,,---,0.00,VWS V14.01,2012-09-04 21:33:00,
2012-09-04 15:38:00,79.4,34.9,29.77,NNW,344,4.0,14.0,20,0.00,,---,0.00,VWS V14.01,2012-09-04 21:38:00,
2012-09-04 15:43:00,80.1,35.5,29.75,WNW,300,8.0,8.0,20,0.00,,---,0.00,VWS V14.01,2012-09-04 21:43:00,
2012-09-04 15:48:00,79.6,35.0,29.75,WNW,294,8.0,8.0,20,0.00,,---,0.00,VWS V14.01,2012-09-04 21:48:00,
2012-09-04 15:53:00,78.7,34.3,29.77,NW,308,2.0,2.0,20,0.00,,---,0.00,VWS V14.01,2012-09-04 21:53:00,
2012-09-04 15:58:00,78.2,33.9,29.76,NW,309,8.0,9.0,20,0.00,,---,0.00,VWS V14.01,2012-09-04 21:58:00,
2012-09-04 16:03:00,78.0,34.9,29.78,WNW,287,3.0,3.0,21,0.00,,---,0.00,VWS V14.01,2012-09-04 22:03:00,
2012-09-04 16:08:00,77.9,34.9,29.78,NW,305,6.0,7.0,21,0.00,,---,0.00,VWS V14.01,2012-09-04 22:08:00,
2012-09-04 16:13:00,78.1,35.0,29.78,NW,304,10.0,11.0,21,0.00,,---,0.00,VWS V14.01,2012-09-04 22:13:00,
2012-09-04 16:18:00,78.0,34.9,29.78,WSW,242,3.0,4.0,21,0.00,,---,0.00,VWS V14.01,2012-09-04 22:18:00,
2012-09-04 16:23:00,77.8,34.8,29.78,WSW,250,8.0,8.0,21,0.00,,---,0.00,VWS V14.01,2012-09-04 22:23:00,
2012-09-04 16:28:00,77.8,34.8,29.77,West,262,10.0,10.0,21,0.00,,---,0.00,VWS V14.01,2012-09-04 22:28:00,
2012-09-04 16:40:00,77.8,36.0,29.77,WNW,296,4.0,10.0,22,0.00,,---,0.00,VWS V14.01,2012-09-04 22:40:00,
2012-09-04 16:45:00,78.0,36.1,29.77,WNW,284,5.0,11.0,22,0.00,,---,0.00,VWS V14.01,2012-09-04 22:45:00,
2012-09-04 16:50:00,77.6,35.8,29.76,WNW,290,6.0,12.0,22,0.00,,---,0.00,VWS V14.01,2012-09-04 22:50:00,
2012-09-04 17:00:00,77.3,36.7,29.78,WNW,294,1.0,9.0,23,0.00,,---,0.00,VWS V14.01,2012-09-04 23:00:00,
2012-09-04 17:05:00,77.5,36.8,29.76,WSW,252,6.0,8.0,23,0.00,,---,0.00,VWS V14.01,2012-09-04 23:05:00,
2012-09-04 17:10:00,77.5,35.7,29.76,West,276,4.0,8.0,22,0.00,,---,0.00,VWS V14.01,2012-09-04 23:10:00,
2012-09-04 17:15:00,77.3,35.5,29.78,West,263,4.0,12.0,22,0.00,,---,0.00,VWS V14.01,2012-09-04 23:15:00,
2012-09-04 17:20:00,77.4,36.7,29.77,West,273,3.0,7.0,23,0.00,,---,0.00,VWS V14.01,2012-09-04 23:20:00,
2012-09-04 17:26:00,77.5,35.7,29.76,West,281,1.0,9.0,22,0.00,,---,0.00,VWS V14.01,2012-09-04 23:26:00,
2012-09-04 17:31:00,77.6,36.9,29.76,West,261,3.0,5.0,23,0.00,,---,0.00,VWS V14.01,2012-09-04 23:31:00,
2012-09-04 17:36:00,77.8,36.0,29.76,WSW,237,6.0,8.0,22,0.00,,---,0.00,VWS V14.01,2012-09-04 23:36:00,
2012-09-04 17:41:00,77.6,36.9,29.76,West,279,7.0,11.0,23,0.00,,---,0.00,VWS V14.01,2012-09-04 23:41:00,
2012-09-04 17:46:00,77.1,35.4,29.78,WNW,292,3.0,10.0,22,0.00,,---,0.00,VWS V14.01,2012-09-04 23:46:00,
2012-09-04 17:51:00,76.9,36.3,29.78,West,268,5.0,12.0,23,0.00,,---,0.00,VWS V14.01,2012-09-04 23:51:00,
2012-09-04 17:56:00,77.0,35.3,29.78,West,259,2.0,5.0,22,0.00,,---,0.00,VWS V14.01,2012-09-04 23:56:00,
2012-09-04 18:01:00,77.3,35.5,29.78,West,260,2.0,8.0,22,0.00,,---,0.00,VWS V14.01,2012-09-05 00:01:00,
2012-09-04 18:06:00,77.5,36.8,29.77,West,260,1.0,5.0,23,0.00,,---,0.00,VWS V14.01,2012-09-05 00:06:00,
2012-09-04 18:11:00,77.9,37.2,29.77,West,265,5.0,7.0,23,0.00,,---,0.00,VWS V14.01,2012-09-05 00:11:00,
2012-09-04 18:16:00,78.3,36.4,29.77,WSW,253,3.0,7.0,22,0.00,,---,0.00,VWS V14.01,2012-09-05 00:16:00,
2012-09-04 18:21:00,78.5,36.5,29.75,WNW,292,5.0,10.0,22,0.00,,---,0.00,VWS V14.01,2012-09-05 00:21:00,
2012-09-04 18:26:00,78.7,36.7,29.75,West,259,7.0,9.0,22,0.00,,---,0.00,VWS V14.01,2012-09-05 00:26:00,
2012-09-04 18:31:00,77.7,37.0,29.77,West,271,1.0,8.0,23,0.00,,---,0.00,VWS V14.01,2012-09-05 00:31:00,
2012-09-04 18:40:00,76.1,36.7,29.79,West,274,2.0,6.0,24,0.00,,---,0.00,VWS V14.01,2012-09-05 00:40:00,
2012-09-04 18:45:00,75.7,37.4,29.79,West,273,1.0,6.0,25,0.00,,---,0.00,VWS V14.01,2012-09-05 00:45:00,
2012-09-04 18:50:00,75.8,36.5,29.79,West,280,5.0,8.0,24,0.00,,---,0.00,VWS V14.01,2012-09-05 00:50:00,
2012-09-04 18:55:00,75.6,37.3,29.78,West,281,5.0,7.0,25,0.00,,---,0.00,VWS V14.01,2012-09-05 00:55:00,
2012-09-04 19:00:00,75.0,36.8,29.78,NW,318,5.0,7.0,25,0.00,,---,0.00,VWS V14.01,2012-09-05 01:00:00,
2012-09-04 19:05:00,74.2,36.2,29.76,NW,319,0.0,5.0,25,0.00,,---,0.00,VWS V14.01,2012-09-05 01:05:00,
2012-09-04 19:10:00,73.7,36.7,29.76,WSW,245,1.0,4.0,26,0.00,,---,0.00,VWS V14.01,2012-09-05 01:10:00,
2012-09-04 19:16:00,72.7,35.9,29.76,WNW,295,2.0,8.0,26,0.00,,---,0.00,VWS V14.01,2012-09-05 01:16:00,
2012-09-04 19:21:00,71.6,35.9,29.78,NW,315,1.0,5.0,27,0.00,,---,0.00,VWS V14.01,2012-09-05 01:21:00,
2012-09-04 19:26:00,70.9,35.3,29.79,NW,325,7.0,10.0,27,0.00,,---,0.00,VWS V14.01,2012-09-05 01:26:00,
2012-09-04 19:31:00,71.0,35.4,29.79,NNW,348,6.0,10.0,27,0.00,,---,0.00,VWS V14.01,2012-09-05 01:31:00,
2012-09-04 19:36:00,71.1,35.5,29.79,NNW,346,8.0,11.0,27,0.00,,---,0.00,VWS V14.01,2012-09-05 01:36:00,
2012-09-04 19:41:00,70.6,35.0,29.79,North,5,8.0,12.0,27,0.00,,---,0.00,VWS V14.01,2012-09-05 01:41:00,
2012-09-04 19:46:00,70.4,34.9,29.80,North,355,4.0,8.0,27,0.00,,---,0.00,VWS V14.01,2012-09-05 01:46:00,
2012-09-04 19:51:00,69.5,35.9,29.81,WNW,288,2.0,4.0,29,0.00,,---,0.00,VWS V14.01,2012-09-05 01:51:00,
2012-09-04 19:56:00,67.9,35.3,29.83,WNW,288,2.0,2.0,30,0.00,,---,0.00,VWS V14.01,2012-09-05 01:56:00,
2012-09-04 20:01:00,67.1,34.7,29.83,WNW,288,0.0,2.0,30,0.00,,---,0.00,VWS V14.01,2012-09-05 02:01:00,
2012-09-04 20:06:00,66.5,34.1,29.74,NW,309,3.0,7.0,30,0.00,,---,0.00,VWS V14.01,2012-09-05 02:06:00,
2012-09-04 20:11:00,66.0,34.5,29.76,NW,309,0.0,1.0,31,0.00,,---,0.00,VWS V14.01,2012-09-05 02:11:00,
2012-09-04 20:16:00,65.6,34.2,29.76,NW,309,0.0,2.0,31,0.00,,---,0.00,VWS V14.01,2012-09-05 02:16:00,
2012-09-04 20:21:00,65.0,34.5,29.77,NW,309,0.0,2.0,32,0.00,,---,0.00,VWS V14.01,2012-09-05 02:21:00,
2012-09-04 20:26:00,64.7,34.2,29.77,NW,309,0.0,0.0,32,0.00,,---,0.00,VWS V14.01,2012-09-05 02:26:00,
2012-09-04 20:31:00,64.2,33.8,29.78,NW,309,0.0,0.0,32,0.00,,---,0.00,VWS V14.01,2012-09-05 02:31:00,
2012-09-04 20:40:00,63.3,33.7,29.79,NW,309,0.0,0.0,33,0.00,,---,0.00,VWS V14.01,2012-09-05 02:40:00,
2012-09-04 20:46:00,62.9,33.4,29.79,NW,309,0.0,0.0,33,0.00,,---,0.00,VWS V14.01,2012-09-05 02:46:00,
2012-09-04 20:51:00,62.7,33.2,29.79,NW,309,0.0,0.0,33,0.00,,---,0.00,VWS V14.01,2012-09-05 02:51:00,
2012-09-04 21:00:00,62.7,34.0,29.80,NW,309,0.0,0.0,34,0.00,,---,0.00,VWS V14.01,2012-09-05 03:00:00,
2012-09-04 21:05:00,62.7,34.0,29.76,NW,309,0.0,0.0,34,0.00,,---,0.00,VWS V14.01,2012-09-05 03:05:00,
2012-09-04 21:11:00,62.7,34.0,29.76,NW,309,0.0,0.0,34,0.00,,---,0.00,VWS V14.01,2012-09-05 03:11:00,
2012-09-04 21:16:00,62.6,33.9,29.76,NW,309,0.0,0.0,34,0.00,,---,0.00,VWS V14.01,2012-09-05 03:16:00,
2012-09-04 21:21:00,62.3,33.6,29.76,NW,309,0.0,0.0,34,0.00,,---,0.00,VWS V14.01,2012-09-05 03:21:00,
2012-09-04 21:26:00,62.1,33.4,29.76,NW,309,0.0,0.0,34,0.00,,---,0.00,VWS V14.01,2012-09-05 03:26:00,
2012-09-04 21:31:00,62.0,33.3,29.76,NW,309,0.0,0.0,34,0.00,,---,0.00,VWS V14.01,2012-09-05 03:31:00,
2012-09-04 21:36:00,61.9,33.2,29.76,NW,309,0.0,0.0,34,0.00,,---,0.00,VWS V14.01,2012-09-05 03:36:00,